• Em Portugal
  • Lista de países
  • Para 7 dias
  • Temperatura da água
  • Mapas de satélite
  • Mapa do tempo
  • Widgets de tempo
  • user-avatar
    Iniciar Sessão

    Previsão horária em Sittwe

    Hoje, 21 Junho, Quinta-feira

    Tempo Temperatura Precipitação Vento Pressão Humidade
    00:00 +29°C° 0 mm 3 m/s 753 mmHg 90%
    01:00 +29°C° 0,7 mm 3 m/s 753 mmHg 91%
    02:00 +28°C° 0,7 mm 2 m/s 753 mmHg 92%
    03:00 +28°C° 0,7 mm 2 m/s 753 mmHg 93%
    04:00 +28°C° 0,4 mm 2 m/s 753 mmHg 92%
    05:00 +28°C° 0,4 mm 2 m/s 753 mmHg 92%
    06:00 +28°C° 0,4 mm 2 m/s 753 mmHg 92%
    07:00 +29°C° 1,5 mm 3 m/s 753 mmHg 87%
    08:00 +31°C° 1,5 mm 3 m/s 753 mmHg 81%
    09:00 +33°C° 1,5 mm 3 m/s 754 mmHg 76%
    10:00 +33°C° 0,6 mm 3 m/s 753 mmHg 75%
    11:00 +34°C° 0,6 mm 3 m/s 753 mmHg 74%
    12:00 +34°C° 0,6 mm 3 m/s 753 mmHg 73%
    13:00 +34°C° 0,3 mm 4 m/s 752 mmHg 74%
    14:00 +34°C° 0,3 mm 4 m/s 752 mmHg 75%
    15:00 +33°C° 0,3 mm 4 m/s 752 mmHg 76%
    16:00 +33°C° 1,8 mm 4 m/s 752 mmHg 80%
    17:00 +32°C° 1,8 mm 4 m/s 752 mmHg 84%
    18:00 +30°C° 1,8 mm 4 m/s 752 mmHg 88%
    19:00 +29°C° 2 mm 4 m/s 752 mmHg 89%
    20:00 +29°C° 2 mm 4 m/s 753 mmHg 90%
    21:00 +29°C° 2 mm 4 m/s 753 mmHg 91%
    22:00 +28°C° 1,5 mm 4 m/s 753 mmHg 91%
    23:00 +28°C° 1,5 mm 4 m/s 753 mmHg 92%

    Amanhã, 22 Junho, Sexta-feira

    Tempo Temperatura Precipitação Vento Pressão Humidade
    00:00 +28°C° 1,5 mm 4 m/s 753 mmHg 93%
    01:00 +28°C° 1,4 mm 4 m/s 753 mmHg 93%
    02:00 +28°C° 1,4 mm 4 m/s 753 mmHg 94%
    03:00 +28°C° 1,4 mm 4 m/s 752 mmHg 94%
    04:00 +28°C° 1,7 mm 4 m/s 753 mmHg 94%
    05:00 +28°C° 1,7 mm 4 m/s 753 mmHg 94%
    06:00 +28°C° 1,7 mm 4 m/s 753 mmHg 94%
    07:00 +29°C° 1,6 mm 4 m/s 753 mmHg 90%
    08:00 +29°C° 1,6 mm 4 m/s 754 mmHg 86%
    09:00 +30°C° 1,6 mm 4 m/s 754 mmHg 82%
    10:00 +32°C° 0,5 mm 4 m/s 754 mmHg 80%
    11:00 +33°C° 0,5 mm 4 m/s 753 mmHg 78%
    12:00 +33°C° 0,5 mm 5 m/s 753 mmHg 75%
    13:00 +33°C° 0,7 mm 5 m/s 753 mmHg 76%
    14:00 +33°C° 0,7 mm 5 m/s 752 mmHg 76%
    15:00 +33°C° 0,7 mm 6 m/s 752 mmHg 76%
    16:00 +32°C° 1 mm 6 m/s 752 mmHg 80%
    17:00 +30°C° 1 mm 6 m/s 752 mmHg 83%
    18:00 +29°C° 1 mm 6 m/s 752 mmHg 87%
    19:00 +29°C° 1,5 mm 6 m/s 753 mmHg 89%
    20:00 +28°C° 1,5 mm 6 m/s 753 mmHg 91%
    21:00 +28°C° 1,5 mm 6 m/s 754 mmHg 93%
    22:00 +28°C° 2,1 mm 6 m/s 753 mmHg 93%
    23:00 +28°C° 2,1 mm 6 m/s 753 mmHg 93%

    Depois de amanhã, 23 Junho, Sábado

    Tempo Temperatura Precipitação Vento Pressão Humidade
    00:00 +28°C° 2,1 mm 6 m/s 753 mmHg 93%
    01:00 +28°C° 1,6 mm 6 m/s 753 mmHg 93%
    02:00 +28°C° 1,6 mm 6 m/s 752 mmHg 93%
    03:00 +28°C° 1,6 mm 5 m/s 752 mmHg 93%
    04:00 +28°C° 2,1 mm 6 m/s 752 mmHg 93%
    05:00 +28°C° 2,1 mm 6 m/s 752 mmHg 93%
    06:00 +28°C° 2,1 mm 6 m/s 752 mmHg 93%
    07:00 +28°C° 3,6 mm 6 m/s 753 mmHg 93%
    08:00 +28°C° 3,6 mm 7 m/s 753 mmHg 93%
    09:00 +28°C° 3,6 mm 7 m/s 754 mmHg 94%
    10:00 +28°C° 3,2 mm 7 m/s 754 mmHg 93%
    11:00 +28°C° 3,2 mm 8 m/s 753 mmHg 93%
    12:00 +28°C° 3,2 mm 8 m/s 753 mmHg 92%
    13:00 +28°C° 2 mm 9 m/s 753 mmHg 92%
    14:00 +28°C° 2 mm 9 m/s 752 mmHg 92%
    15:00 +28°C° 2 mm 9 m/s 752 mmHg 91%
    16:00 +28°C° 2,4 mm 8 m/s 752 mmHg 92%
    17:00 +28°C° 2,4 mm 8 m/s 752 mmHg 92%
    18:00 +28°C° 2,4 mm 8 m/s 752 mmHg 92%
    19:00 +28°C° 2,9 mm 8 m/s 752 mmHg 93%
    20:00 +28°C° 2,9 mm 7 m/s 753 mmHg 93%
    21:00 +28°C° 2,9 mm 7 m/s 753 mmHg 93%
    22:00 +28°C° 2,4 mm 7 m/s 753 mmHg 94%
    23:00 +28°C° 2,4 mm 7 m/s 753 mmHg 94%

    24 Junho, Domingo

    Tempo Temperatura Precipitação Vento Pressão Humidade
    00:00 +27°C° 2,4 mm 7 m/s 752 mmHg 94%
    01:00 +27°C° 1,4 mm 7 m/s 752 mmHg 94%
    02:00 +28°C° 1,4 mm 7 m/s 752 mmHg 94%
    03:00 +28°C° 1,4 mm 7 m/s 751 mmHg 94%
    04:00 +28°C° 2 mm 7 m/s 752 mmHg 94%
    05:00 +28°C° 2 mm 7 m/s 752 mmHg 93%
    06:00 +28°C° 2 mm 7 m/s 752 mmHg 93%
    07:00 +28°C° 2,5 mm 7 m/s 752 mmHg 93%
    08:00 +28°C° 2,5 mm 7 m/s 753 mmHg 92%
    09:00 +28°C° 2,5 mm 8 m/s 753 mmHg 92%
    10:00 +28°C° 2,7 mm 8 m/s 753 mmHg 92%
    11:00 +28°C° 2,7 mm 8 m/s 753 mmHg 93%
    12:00 +28°C° 2,7 mm 8 m/s 753 mmHg 93%
    13:00 +28°C° 1,7 mm 8 m/s 752 mmHg 93%
    14:00 +28°C° 1,7 mm 8 m/s 752 mmHg 93%
    15:00 +28°C° 1,7 mm 8 m/s 751 mmHg 93%
    16:00 +28°C° 1,6 mm 8 m/s 752 mmHg 93%
    17:00 +28°C° 1,6 mm 8 m/s 752 mmHg 92%
    18:00 +28°C° 1,6 mm 8 m/s 752 mmHg 92%
    19:00 +28°C° 1 mm 8 m/s 752 mmHg 92%
    20:00 +28°C° 1 mm 8 m/s 753 mmHg 92%
    21:00 +28°C° 1 mm 8 m/s 753 mmHg 93%
    22:00 +28°C° 1,5 mm 8 m/s 753 mmHg 93%
    23:00 +28°C° 1,5 mm 8 m/s 753 mmHg 94%

    25 Junho, Segunda-feira

    Tempo Temperatura Precipitação Vento Pressão Humidade
    00:00 +28°C° 1,5 mm 8 m/s 752 mmHg 94%
    01:00 +28°C° 1,3 mm 8 m/s 752 mmHg 94%
    02:00 +28°C° 1,3 mm 8 m/s 752 mmHg 94%
    03:00 +28°C° 1,3 mm 8 m/s 751 mmHg 93%
    04:00 +28°C° 1,6 mm 8 m/s 751 mmHg 93%
    05:00 +28°C° 1,6 mm 8 m/s 752 mmHg 93%
    06:00 +28°C° 1,6 mm 8 m/s 752 mmHg 92%
    07:00 +28°C° 1,5 mm 8 m/s 752 mmHg 92%
    08:00 +28°C° 1,5 mm 8 m/s 752 mmHg 91%
    09:00 +28°C° 1,5 mm 8 m/s 753 mmHg 90%
    10:00 +29°C° 1,6 mm 8 m/s 752 mmHg 88%
    11:00 +31°C° 1,6 mm 8 m/s 752 mmHg 86%
    12:00 +31°C° 1,6 mm 8 m/s 752 mmHg 84%
    13:00 +31°C° 1,3 mm 8 m/s 752 mmHg 84%
    14:00 +30°C° 1,3 mm 7 m/s 751 mmHg 83%
    15:00 +30°C° 1,3 mm 7 m/s 751 mmHg 82%
    16:00 +30°C° 2,1 mm 7 m/s 751 mmHg 84%
    17:00 +29°C° 2,1 mm 7 m/s 751 mmHg 87%
    18:00 +29°C° 2,1 mm 7 m/s 751 mmHg 89%
    19:00 +28°C° 2 mm 7 m/s 752 mmHg 90%
    20:00 +28°C° 2 mm 7 m/s 752 mmHg 91%
    21:00 +28°C° 2 mm 7 m/s 752 mmHg 92%
    22:00 +28°C° 1,3 mm 7 m/s 752 mmHg 93%
    23:00 +28°C° 1,3 mm 7 m/s 752 mmHg 94%

    26 Junho, Terça-feira

    Tempo Temperatura Precipitação Vento Pressão Humidade
    00:00 +28°C° 1,3 mm 7 m/s 751 mmHg 95%
    01:00 +28°C° 1,2 mm 7 m/s 751 mmHg 95%
    02:00 +28°C° 1,2 mm 7 m/s 751 mmHg 95%
    03:00 +27°C° 1,2 mm 7 m/s 750 mmHg 95%
    04:00 +27°C° 1,3 mm 7 m/s 751 mmHg 95%
    05:00 +27°C° 1,3 mm 7 m/s 751 mmHg 95%
    06:00 +27°C° 1,3 mm 7 m/s 752 mmHg 95%
    07:00 +28°C° 1,1 mm 7 m/s 752 mmHg 94%
    08:00 +28°C° 1,1 mm 6 m/s 752 mmHg 93%
    09:00 +28°C° 1,1 mm 6 m/s 753 mmHg 92%
    10:00 +29°C° 1,4 mm 6 m/s 752 mmHg 92%
    11:00 +29°C° 1,4 mm 7 m/s 752 mmHg 91%
    12:00 +29°C° 1,4 mm 7 m/s 752 mmHg 90%
    13:00 +29°C° 1,6 mm 7 m/s 752 mmHg 91%
    14:00 +28°C° 1,6 mm 7 m/s 751 mmHg 91%
    15:00 +28°C° 1,6 mm 7 m/s 751 mmHg 92%
    16:00 +28°C° 2,3 mm 7 m/s 751 mmHg 92%
    17:00 +28°C° 2,3 mm 7 m/s 752 mmHg 91%
    18:00 +28°C° 2,3 mm 7 m/s 752 mmHg 91%
    19:00 +28°C° 1,6 mm 7 m/s 752 mmHg 91%
    20:00 +28°C° 1,6 mm 7 m/s 752 mmHg 91%
    21:00 +28°C° 1,6 mm 7 m/s 753 mmHg 91%
    22:00 +27°C° 1,2 mm 7 m/s 753 mmHg 92%
    23:00 +27°C° 1,2 mm 7 m/s 752 mmHg 93%
    Mostrar mais